Rbgn^[z[y[W
メイン
   新天体発見情報
     Comet P/2009 Q4 = 2020 P2 (Boattini)
投稿するにはまず登録を

フラット表示 前のトピック | 次のトピック
投稿者 スレッド
佐藤裕久
投稿日時: 2020-8-25 18:44
モデレータ
登録日: 2005-6-12
居住地: 日本
投稿: 2683
オンライン
Comet P/2009 Q4 = 2020 P2 (Boattini)

N. Erasmus (南アフリカ天文台)の通報によると、8月11日UT、ハワイ Mauna Loaにある小惑星
地球衝突最終警報システム Asteroid Terrestrial-impact Last Alert System (ATLAS)調査
プログラムのコースに0.5-m f/2 Schmidt反射望遠鏡で得たCCD画像から彗星を発見した。
この天体は、拡散したコマ(FWHMが4"のシーイングで6"であった)があり、p.a. 260°に向かって
約15"伸びていた。
この天体は直ちに小惑星センターのwebpageに掲載された。佐藤英貴氏(東京都文京区, 8月12.43
日UT、60秒露出20枚のスタック, 0.43-m f/6.8 アストログラフ, Mayhill近郊, ニューメキシコ
州, 遠隔操作:強く集光した10" のコマが見え、p.a.270°に向かって15"の尾がある。5".7の円形
範囲で測定した光度は19.3等であった)とフォローアップ観測を送った時、これがP/2009 Q4 
(IAUCs9069, 9081を参照)の検出であることを注記した。
NK 3440とICQ's 2019 and 2020 Comet Handbookの中野主一氏の予報に対し、Delta(T)は、-0.22 
dayであった。

検出位置は次のとおり、

     2020 UT             R.A. (2000) Decl.       Mag.
     Aug. 11.58229    2 20 02.99   + 0 40 38.6   19.1
          11.59290    2 20 04.05   + 0 40 39.4   18.4
          11.59844    2 20 04.62   + 0 40 39.4   19.0
          11.60351    2 20 05.09   + 0 40 38.7   18.9

MPCの連結軌道要素、位置推算表は次のとおり、

Orbital elements:
    P/2009 Q4 (Boattini)                                                        
Epoch 2009 Nov. 25.0 TT = JDT 2455160.5                                         
T 2009 Nov. 19.92127 TT                                 Rudenko                 
q   1.3208687            (2000.0)            P               Q                  
n   0.17724228     Peri.  320.01095     +0.03112076     -0.98810324             
a   3.1387580      Node   127.67285     +0.95879017     -0.01306256             
e   0.5791747      Incl.   10.96922     +0.28240558     +0.15323629             
P   5.56                                                                        
From 813 observations 2009 Aug. 26-2020 Aug. 22, mean residual 0".6.            
                                                                                
    P/2009 Q4 (Boattini)                                                        
Epoch 2015 June 27.0 TT = JDT 2457200.5                                         
T 2015 June 13.27188 TT                                 Rudenko                 
q   1.3169825            (2000.0)            P               Q                  
n   0.17750071     Peri.  320.13192     +0.03031633     -0.98808114             
a   3.1357107      Node   127.59771     +0.95876132     -0.01394150             
e   0.5800051      Incl.   10.98073     +0.28259096     +0.15330132             
P   5.55                                                                        
From 813 observations 2009 Aug. 26-2020 Aug. 22, mean residual 0".6.            
                                                                                
    P/2009 Q4 (Boattini)                                                        
Epoch 2020 Dec. 17.0 TT = JDT 2459200.5                                         
T 2020 Dec. 26.74677 TT                                 Rudenko                 
q   1.3056813            (2000.0)            P               Q                  
n   0.17815125     Peri.  320.23586     +0.03078682     -0.98795290             
a   3.1280724      Node   127.46363     +0.95878050     -0.01369138             
e   0.5825924      Incl.   11.01536     +0.28247499     +0.15414800             
P   5.53                                                                        
From 813 observations 2009 Aug. 26-2020 Aug. 22, mean residual 0".6.            
                                                                                
    P/2009 Q4 (Boattini)                                                        
Epoch 2026 July 19.0 TT = JDT 2461240.5                                         
T 2026 July 7.95342 TT                                  Rudenko                 
q   1.3000660            (2000.0)            P               Q                  
n   0.17853957     Peri.  320.30554     +0.03053436     -0.98791590             
a   3.1235352      Node   127.40754     +0.95877757     -0.01401989             
e   0.5837838      Incl.   11.02845     +0.28251235     +0.15435552             
P   5.52                                                                        
From 813 observations 2009 Aug. 26-2020 Aug. 22, mean residual 0".6.            
                                                                                
    P/2009 Q4 (Boattini)                                                        
Epoch 2020 May 31.0 TT = JDT 2459000.5                                          
T 2020 Dec. 26.74622 TT                                 Rudenko                 
q   1.3058173            (2000.0)            P               Q                  
n   0.17817927     Peri.  320.22599     +0.03093193     -0.98794925             
a   3.1277444      Node   127.46510     +0.95878294     -0.01354867             
e   0.5825051      Incl.   11.01516     +0.28245086     +0.15418402             
P   5.53                                                                        
From 813 observations 2009 Aug. 26-2020 Aug. 22, mean residual 0".6.            
                                                                                
Ephemeris:
Date    TT    R. A. (2000) Decl.     Delta      r    Elong.  Phase   m1
2020 07 25    01 50 59.5 +00 29 56   1.7080  2.0793    96.2    29.1  19.3
...
2020 08 09    02 15 46.7 +00 42 14   1.4625  1.9749   104.3    29.8  18.8
...
2020 08 17    02 28 58.7 +00 33 32   1.3387  1.9194   108.6    30.0  18.5
...
2020 08 23    02 38 48.5 +00 18 57   1.2497  1.8781   111.9    30.0  18.2
2020 08 24    02 40 26.3 +00 15 49   1.2352  1.8712   112.4    30.0  18.2
2020 08 25    02 42 03.9 +00 12 28   1.2208  1.8643   113.0    29.9  18.1
...
2020 08 31    02 51 45.4 -00 12 05   1.1367  1.8234   116.2    29.8  17.9
...
2020 09 08    03 04 26.5 -00 57 14   1.0306  1.7695   120.5    29.4  17.5
...
2020 09 23    03 26 58.7 -03 02 05   0.8523  1.6715   128.3    28.1  16.9

(CBET 4829、MPEC 2020-Q184)

フラット表示 前のトピック | 次のトピック

題名 投稿者 日時
 » Comet P/2009 Q4 = 2020 P2 (Boattini) 佐藤裕久 2020-8-25 18:44

投稿するにはまず登録を
 
© 1999 Tsutomu Seki.